Lubbock Preston Smith International Airport
KLBB : rendu visible

Aérodrome :











RETROUVEZ-NOUS SUR...

 
LOGIN :

S'inscrire | Disclaimer

   EN    FR    IT 

 









Légende :    VFR   VFR Marginal   IFR   IFR Intensif   IFR Très Intensif
Visi : 
Plafond : 
>= 8 km
>= 3000ft
5 à 8 km
1000 à 3000 ft
1500m à 5 km
500 à 1000 ft
800 à 1500m
200 à 500 ft
< 800m
< 200 ft
Symboles :   Orages  Brouillard  Fortes neiges  Fortes précipitations  Vent > 20 kt






- Altitude de l'aérodrome : 3282 ft
- Code IATA : LBB


KLBB - Lubbock Preston Smith International

DERNIER METAR :
  • 260253Z 34005KT 10SM FEW030 FEW250 14/11 A3003 RMK AO2 SLP141 60000 T01390111 53021

METARs EXPIRÉS :
  • 260153Z 34008KT 10SM FEW035 FEW075 SCT250 14/11 A3001 RMK AO2 PRESRR SLP133 CB DSNT S MOV E T01440106
  • 260053Z 01012KT 10SM FEW035 SCT075 BKN250 16/11 A2997 RMK AO2 PK WND 06028/0004 RAE20 SLP120 P0000 T01610111

TAF KLBB
Valide du 26 à 00h jusqu'au 27 à 00h UTC


252325Z 2600/2624 36015KT P6SM -SHRA OVC090
FM260300 36008KT P6SM OVC100
FIR KZFW / Amérique du Nord



MET'MAP, la Météo Aéronautique d'un coup d'oeil ! - Copyright ORBIFLY Décembre 2007 - Disclaimer

ORBIFLY MET'MAP TEAM :

Programmation & Développement : Alexandra Zaïnal
Sur une idée originale de : Baudouin d'Aumeries
Assistance à la programmation : Marc-Olivier Méhu
Soutien technique & logistique : Manuel Goepfert

Contact : metmap@orbifly.com




SOURCES & CREDITS :

   NOAA       Earth
Advisory